Regional Weather Roundup
Issued by NWS

Home | Current Version | Previous Version | Graphics & Text | Print | Product List | Glossary On
Versions: 1 2 3 4 5 6 7 8 9 10 11 12 13 14 15 16 17 18 19 20 21 22 23 24 25 26 27 28 29 30 31 32 33 34 35 36 37 38 39 40 41 42 43 44 45 46 47 48 49 50
000
ASUS43 KBIS 212102
RWRND

NORTH DAKOTA REGIONAL WEATHER ROUNDUP
NATIONAL WEATHER SERVICE BISMARCK ND
400 PM CDT THU SEP 21 2017

NOTE: "FAIR" INDICATES FEW OR NO CLOUDS BELOW 12,000 FEET WITH NO
SIGNIFICANT WEATHER AND/OR OBSTRUCTIONS TO VISIBILITY.


NDZ001>003-009>011-017-212200-
NORTHWEST NORTH DAKOTA

CITY           SKY/WX    TMP DP  RH WIND       PRES   REMARKS
WILLISTON      CLOUDY    60  39  45 N7        29.77R
MINOT          MOSUNNY   73  44  35 NW6       29.69R
MINOT AFB      MOSUNNY   67  44  43 N7        29.69R
$$

NDZ018>021-031>035-040>046-212200-
SOUTHWEST NORTH DAKOTA

CITY           SKY/WX    TMP DP  RH WIND       PRES   REMARKS
BISMARCK       SUNNY     82  54  37 W16       29.64R
DICKINSON      SUNNY     70  44  39 N12       29.72R
GARRISON         N/A     71  43  36 N10       29.68R
HETTINGER ARPT SUNNY     72  39  30 N15G22    29.72R
$$

NDZ004>008-012>016-024-026-027-054-212200-
NORTHEAST NORTH DAKOTA

CITY           SKY/WX    TMP DP  RH WIND       PRES   REMARKS
GRAND FORKS    MOSUNNY   81  47  30 S18       29.68F
GRND FRKS AFB  SUNNY     79  44  28 SE17G23   29.68F
DEVILS LAKE    CLOUDY    76  55  48 S13       29.67F
$$

NDZ022-023-025-028>030-036>039-047>053-212200-
SOUTHEAST NORTH DAKOTA

CITY           SKY/WX    TMP DP  RH WIND       PRES   REMARKS
FARGO          PTSUNNY   81  47  30 SE18G24   29.68F
JAMESTOWN      SUNNY     81  53  37 S16       29.65F
$$




USA.gov is the U.S. government's official web portal to all federal, state and local government web resources and services.